DW9727 Weather Reports


time (UTC)temp
F
wind
direction
speed
knots
gust
knots
rain 1hr
in
rain 24hr
in
rain mn
in
humidity
%
barometer
mb
20260509124710 49 232 0.9 2.6 0.00 0.00 0.00 66 1007.3
20260509123711 48 216 1.7 6.1 0.00 0.00 0.00 68 1007.1
20260509122711 46 214 3.5 4.3 0.00 0.00 0.00 71 1007.2
20260509120710 45 234 0.9 2.6 0.00 0.00 0.00 72 1007.0
20260509115710 45 251 0.9 1.7 0.00 0.00 0.00 72 1007.1
20260509114711 44 251 0.0 1.7 0.00 0.00 0.00 74 1007.0
20260509113711 44 251 0.9 1.7 0.00 0.00 0.00 73 1006.9
20260509111710 44 253 0.0 0.0 0.00 0.00 0.00 70 1006.8
20260509110710 44 252 0.0 1.7 0.00 0.00 0.00 71 1006.7
20260509105711 44 252 0.9 2.6 0.00 0.00 0.00 71 1006.6
20260509104711 44 261 1.7 2.6 0.00 0.00 0.00 71 1006.7
20260509103710 43 241 1.7 2.6 0.00 0.00 0.00 70 1006.9
20260509102710 44 228 0.9 1.7 0.00 0.00 0.00 70 1006.6
20260509101710 44 228 0.0 0.0 0.00 0.00 0.00 71 1006.5
20260509100710 44 228 0.0 0.0 0.00 0.00 0.00 69 1006.5
20260509095711 44 228 0.0 0.0 0.00 0.00 0.00 69 1006.5
20260509094711 44 204 0.0 0.0 0.00 0.00 0.00 68 1006.6
20260509093711 44 204 0.0 0.0 0.00 0.00 0.00 68 1006.8
20260509092711 45 204 0.0 0.0 0.00 0.00 0.00 68 1006.9
20260509091711 45 204 0.0 0.0 0.00 0.00 0.00 69 1006.8
20260509090711 45 204 0.0 0.0 0.00 0.00 0.00 65 1006.8
20260509085711 45 204 0.0 0.9 0.00 0.00 0.00 66 1006.7
20260509084711 45 204 0.0 2.6 0.00 0.00 0.00 65 1006.5
20260509083711 45 200 0.9 1.7 0.00 0.00 0.00 68 1006.5
20260509082710 45 261 1.7 1.7 0.00 0.00 0.00 69 1006.5
20260509075710 46 289 0.0 0.9 0.00 0.00 0.00 66 1006.4
20260509074711 47 289 0.0 1.7 0.00 0.00 0.00 66 1006.6
20260509073711 47 289 0.0 1.7 0.00 0.00 0.00 64 1006.6
20260509072710 47 289 0.9 0.9 0.00 0.00 0.00 63 1006.7
20260509071710 47 288 0.0 1.7 0.00 0.00 0.00 61 1006.8
20260509070710 48 289 0.0 0.0 0.00 0.00 0.00 58 1006.6
20260509065710 48 289 0.0 1.7 0.00 0.00 0.00 57 1006.7
20260509064710 48 288 0.0 1.7 0.00 0.00 0.00 55 1006.8
20260509063711 49 288 0.9 1.7 0.00 0.00 0.00 55 1006.9
20260509062711 49 288 0.0 0.0 0.00 0.00 0.00 54 1006.9
20260509060711 50 288 0.0 0.0 0.00 0.00 0.00 53 1007.1
20260509055710 50 288 0.0 0.0 0.00 0.00 0.00 53 1007.2
20260509054711 51 288 0.0 0.0 0.00 0.00 0.00 53 1007.3
20260509053710 51 288 0.0 0.0 0.00 0.00 0.00 53 1007.2
20260509052710 51 288 0.0 1.7 0.00 0.00 0.00 53 1007.3
20260509051711 52 288 0.0 2.6 0.00 0.00 0.00 53 1007.3
20260509050710 53 286 0.9 2.6 0.00 0.00 0.00 49 1007.3
20260509045710 53 265 0.0 1.7 0.00 0.00 0.00 49 1007.4
20260509042710 55 296 0.9 2.6 0.00 0.00 0.00 49 1007.1
20260509041710 56 305 0.9 2.6 0.00 0.00 0.00 48 1007.2
20260509040711 57 308 1.7 2.6 0.00 0.00 0.00 43 1007.1
20260509033710 58 317 2.6 2.6 0.00 0.00 0.00 41 1006.8
20260509032710 59 316 1.7 2.6 0.00 0.00 0.00 40 1006.7
20260509031710 60 322 1.7 2.6 0.00 0.00 0.00 39 1006.6
20260509030710 60 329 2.6 2.6 0.00 0.00 0.00 38 1006.5
20260509025710 61 0 2.6 4.3 0.00 0.00 0.00 37 1006.3
20260509024711 62 325 2.6 4.3 0.00 0.00 0.00 36 1006.3
20260509022710 62 327 3.5 6.1 0.00 0.00 0.00 36 1005.8
20260509021711 63 312 2.6 4.3 0.00 0.00 0.00 36 1005.5
20260509015710 65 313 2.6 4.3 0.00 0.00 0.00 33 1005.1
20260509011710 70 306 6.1 7.8 0.00 0.00 0.00 31 1004.8
20260509010710 71 313 4.3 7.8 0.00 0.00 0.00 32 1004.6
20260509003711 74 310 6.1 12.2 0.00 0.00 0.00 30 1004.6
20260509002711 74 302 7.8 12.2 0.00 0.00 0.00 28 1004.6
20260509001710 74 322 6.1 19.1 0.00 0.00 0.00 29 1004.7
20260508235710 74 312 13.0 22.6 0.00 0.00 0.00 27 1004.9
20260508234711 74 314 13.9 20.0 0.00 0.00 0.00 26 1004.8
20260508233710 75 298 7.0 17.4 0.00 0.00 0.00 25 1004.7
20260508232710 76 319 9.6 14.8 0.00 0.00 0.00 25 1004.7
20260508230710 77 305 11.3 17.4 0.00 0.00 0.00 25 1004.7
20260508224710 76 286 11.3 19.1 0.00 0.00 0.00 27 1004.9
20260508223710 77 294 9.6 19.1 0.00 0.00 0.00 26 1004.7
20260508221710 76 325 8.7 14.8 0.00 0.00 0.00 28 1004.6
20260508220711 77 309 10.4 19.1 0.00 0.00 0.00 28 1004.7
20260508215710 78 313 7.8 17.4 0.00 0.00 0.00 30 1004.7
20260508214710 78 301 10.4 17.4 0.00 0.00 0.00 31 1004.8
20260508213710 78 314 10.4 19.1 0.00 0.00 0.00 31 1004.7
20260508212710 78 0 7.0 17.4 0.00 0.00 0.00 30 1004.7
20260508211711 78 322 9.6 17.4 0.00 0.00 0.00 31 1004.8
20260508210711 79 300 8.7 19.1 0.00 0.00 0.00 30 1004.8
20260508205711 79 300 10.4 15.6 0.00 0.00 0.00 27 1004.9
20260508203711 77 294 7.8 15.6 0.00 0.00 0.00 32 1005.2
20260508202711 74 271 7.8 13.0 0.00 0.00 0.00 33 1005.3
20260508201710 74 9 6.1 10.4 0.00 0.00 0.00 33 1005.4
20260508194710 75 302 7.8 10.4 0.00 0.00 0.00 33 1005.8
20260508193710 78 304 5.2 13.0 0.00 0.00 0.00 28 1005.8
20260508192710 77 269 6.1 13.9 0.00 0.00 0.00 28 1005.9
20260508191710 76 288 8.7 17.4 0.00 0.00 0.00 30 1006.2
20260508190710 74 322 8.7 12.2 0.00 0.00 0.00 35 1006.4
20260508185710 74 313 5.2 14.8 0.00 0.00 0.00 31 1006.4
20260508184711 75 321 8.7 20.9 0.00 0.00 0.00 31 1006.5
20260508183711 76 251 7.0 13.9 0.00 0.00 0.00 33 1006.5
20260508182710 75 294 5.2 12.2 0.00 0.00 0.00 33 1006.5
20260508181711 74 327 11.3 21.7 0.00 0.00 0.00 34 1006.7
20260508180710 75 209 9.6 13.9 0.00 0.00 0.00 32 1006.7
20260508175711 74 326 5.2 10.4 0.00 0.00 0.00 40 1006.8
20260508174711 73 260 4.3 10.4 0.00 0.00 0.00 36 1006.8
20260508173710 73 234 4.3 8.7 0.00 0.00 0.00 34 1006.8
20260508170711 73 218 6.1 11.3 0.00 0.00 0.00 34 1007.5
20260508165711 74 221 5.2 11.3 0.00 0.00 0.00 34 1007.7
20260508164710 73 333 1.7 8.7 0.00 0.00 0.00 38 1007.7
20260508163710 72 223 6.1 12.2 0.00 0.00 0.00 36 1007.9
20260508162711 72 218 3.5 12.2 0.00 0.00 0.00 37 1007.8
20260508161711 71 221 2.6 10.4 0.00 0.00 0.00 35 1007.9
20260508160711 71 220 6.1 11.3 0.00 0.00 0.00 39 1008.0
20260508155711 70 246 5.2 11.3 0.00 0.00 0.00 40 1008.1
20260508154711 70 277 2.6 7.8 0.00 0.00 0.00 41 1008.1
20260508152710 68 248 5.2 8.7 0.00 0.00 0.00 41 1008.3
20260508151711 68 261 3.5 7.0 0.00 0.00 0.00 41 1008.3
20260508150710 67 272 4.3 7.8 0.00 0.00 0.00 42 1008.4
20260508145711 67 237 3.5 6.1 0.00 0.00 0.00 45 1008.4
20260508144710 66 218 4.3 6.1 0.00 0.00 0.00 47 1008.6
20260508142710 65 234 1.7 4.3 0.00 0.00 0.00 49 1008.6
20260508141710 64 258 1.7 5.2 0.00 0.00 0.00 53 1008.7
20260508140710 64 261 0.9 1.7 0.00 0.00 0.00 52 1008.6
20260508135710 64 246 0.9 2.6 0.00 0.00 0.00 53 1008.6
20260508133710 62 217 0.0 2.6 0.00 0.00 0.00 55 1008.5
20260508131710 59 86 0.0 0.9 0.00 0.00 0.00 62 1008.5
20260508125710 55 121 0.0 0.0 0.00 0.00 0.00 66 1008.4